Year,Month,Day,Hour,Minute,Value (Times are PST for temperature in C)
2011,08,15,00,00,15.20
2011,08,15,00,01,15.20
2011,08,15,00,02,15.10
2011,08,15,00,03,15.10
2011,08,15,00,04,15.10
2011,08,15,00,05,15.10
2011,08,15,00,06,15.20
2011,08,15,00,07,15.20
2011,08,15,00,08,15.30
2011,08,15,00,09,15.40
2011,08,15,00,10,15.40
2011,08,15,00,11,15.50
2011,08,15,00,12,15.60
2011,08,15,00,13,15.60
2011,08,15,00,14,15.70
2011,08,15,00,15,15.70
2011,08,15,00,16,15.70
2011,08,15,00,17,15.70
2011,08,15,00,18,15.70
2011,08,15,00,19,15.80
2011,08,15,00,20,15.80
2011,08,15,00,21,15.80
2011,08,15,00,22,15.80
2011,08,15,00,23,15.80
2011,08,15,00,24,15.90
2011,08,15,00,25,15.90
2011,08,15,00,26,15.90
2011,08,15,00,27,15.90
2011,08,15,00,28,15.90
2011,08,15,00,29,16.00
2011,08,15,00,30,16.00
2011,08,15,00,31,16.00
2011,08,15,00,32,16.00
2011,08,15,00,33,16.10
2011,08,15,00,34,16.00
2011,08,15,00,35,16.10
2011,08,15,00,36,16.10
2011,08,15,00,37,16.00
2011,08,15,00,38,16.00
2011,08,15,00,39,16.00
2011,08,15,00,40,16.00
2011,08,15,00,41,15.90
2011,08,15,00,42,15.90
2011,08,15,00,43,15.90
2011,08,15,00,44,15.90
2011,08,15,00,45,15.80
2011,08,15,00,46,15.80
2011,08,15,00,47,15.80
2011,08,15,00,48,15.70
2011,08,15,00,49,15.70
2011,08,15,00,50,15.70
2011,08,15,00,51,15.60
2011,08,15,00,52,15.60
2011,08,15,00,53,15.60
2011,08,15,00,54,15.60
2011,08,15,00,55,15.60
2011,08,15,00,56,15.60
2011,08,15,00,57,15.50
2011,08,15,00,58,15.50
2011,08,15,00,59,15.40
2011,08,15,01,00,15.40
2011,08,15,01,01,15.40
2011,08,15,01,02,15.30
2011,08,15,01,03,15.30
2011,08,15,01,04,15.30
2011,08,15,01,05,15.30
2011,08,15,01,06,15.20
2011,08,15,01,07,15.20
2011,08,15,01,08,15.20
2011,08,15,01,09,15.20
2011,08,15,01,10,15.20
2011,08,15,01,11,15.20
2011,08,15,01,12,15.20
2011,08,15,01,13,15.10
2011,08,15,01,14,15.10
2011,08,15,01,15,15.10
2011,08,15,01,16,15.00
2011,08,15,01,17,15.00
2011,08,15,01,18,15.00
2011,08,15,01,19,15.00
2011,08,15,01,20,15.00
2011,08,15,01,21,15.00
2011,08,15,01,22,15.00
2011,08,15,01,23,15.00
2011,08,15,01,24,15.00
2011,08,15,01,25,15.00
2011,08,15,01,26,15.00
2011,08,15,01,27,15.00
2011,08,15,01,28,15.10
2011,08,15,01,29,15.10
2011,08,15,01,30,15.10
2011,08,15,01,31,15.10
2011,08,15,01,32,15.20
2011,08,15,01,33,15.20
2011,08,15,01,34,15.20
2011,08,15,01,35,15.20
2011,08,15,01,36,15.20
2011,08,15,01,37,15.20
2011,08,15,01,38,15.30
2011,08,15,01,39,15.30
2011,08,15,01,40,15.30
2011,08,15,01,41,15.30
2011,08,15,01,42,15.30
2011,08,15,01,43,15.30
2011,08,15,01,44,15.30
2011,08,15,01,45,15.30
2011,08,15,01,46,15.30
2011,08,15,01,47,15.30
2011,08,15,01,48,15.30
2011,08,15,01,49,15.30
2011,08,15,01,50,15.30
2011,08,15,01,51,15.40
2011,08,15,01,52,15.40
2011,08,15,01,53,15.40
2011,08,15,01,54,15.40
2011,08,15,01,55,15.40
2011,08,15,01,56,15.40
2011,08,15,01,57,15.30
2011,08,15,01,58,15.40
2011,08,15,01,59,15.40
2011,08,15,02,00,15.40
2011,08,15,02,01,15.30
2011,08,15,02,02,15.30
2011,08,15,02,03,15.30
2011,08,15,02,04,15.30
2011,08,15,02,05,15.30
2011,08,15,02,06,15.30
2011,08,15,02,07,15.30
2011,08,15,02,08,15.30
2011,08,15,02,09,15.30
2011,08,15,02,10,15.30
2011,08,15,02,11,15.30
2011,08,15,02,12,15.30
2011,08,15,02,13,15.30
2011,08,15,02,14,15.30
2011,08,15,02,15,15.30
2011,08,15,02,16,15.30
2011,08,15,02,17,15.30
2011,08,15,02,18,15.30
2011,08,15,02,19,15.20
2011,08,15,02,20,15.20
2011,08,15,02,21,15.20
2011,08,15,02,22,15.20
2011,08,15,02,23,15.20
2011,08,15,02,24,15.10
2011,08,15,02,25,15.10
2011,08,15,02,26,15.00
2011,08,15,02,27,15.00
2011,08,15,02,28,15.00
2011,08,15,02,29,15.00
2011,08,15,02,30,15.00
2011,08,15,02,31,15.00
2011,08,15,02,32,15.00
2011,08,15,02,33,15.00
2011,08,15,02,34,15.00
2011,08,15,02,35,15.00
2011,08,15,02,36,15.00
2011,08,15,02,37,15.00
2011,08,15,02,38,15.10
2011,08,15,02,39,15.20
2011,08,15,02,40,15.30
2011,08,15,02,41,15.30
2011,08,15,02,42,15.30
2011,08,15,02,43,15.30
2011,08,15,02,44,15.30
2011,08,15,02,45,15.30
2011,08,15,02,46,15.30
2011,08,15,02,47,15.40
2011,08,15,02,48,15.40
2011,08,15,02,49,15.40
2011,08,15,02,50,15.40
2011,08,15,02,51,15.40
2011,08,15,02,52,15.40
2011,08,15,02,53,15.40
2011,08,15,02,54,15.40
2011,08,15,02,55,15.40
2011,08,15,02,56,15.40
2011,08,15,02,57,15.40
2011,08,15,02,58,15.30
2011,08,15,02,59,15.30
2011,08,15,03,00,15.30
2011,08,15,03,01,15.20
2011,08,15,03,02,15.10
2011,08,15,03,06,15.00
2011,08,15,03,07,15.00
2011,08,15,03,08,15.00
2011,08,15,03,09,15.00
2011,08,15,03,10,15.00
2011,08,15,03,11,14.90
2011,08,15,03,12,14.80
2011,08,15,03,13,14.80
2011,08,15,03,14,14.80
2011,08,15,03,15,14.70
2011,08,15,03,16,14.70
2011,08,15,03,17,14.70
2011,08,15,03,18,14.60
2011,08,15,03,19,14.60
2011,08,15,03,20,14.50
2011,08,15,03,21,14.50
2011,08,15,03,22,14.50
2011,08,15,03,23,14.50
2011,08,15,03,24,14.40
2011,08,15,03,25,14.40
2011,08,15,03,26,14.40
2011,08,15,03,27,14.40
2011,08,15,03,28,14.40
2011,08,15,03,29,14.30
2011,08,15,03,30,14.30
2011,08,15,03,31,14.30
2011,08,15,03,32,14.30
2011,08,15,03,33,14.20
2011,08,15,03,34,14.20
2011,08,15,03,35,14.20
2011,08,15,03,36,14.10
2011,08,15,03,37,14.10
2011,08,15,03,38,14.10
2011,08,15,03,39,14.10
2011,08,15,03,40,14.10
2011,08,15,03,41,14.10
2011,08,15,03,42,14.10
2011,08,15,03,43,14.10
2011,08,15,03,44,14.10
2011,08,15,03,45,14.10
2011,08,15,03,46,14.10
2011,08,15,03,47,14.10
2011,08,15,03,48,14.10
2011,08,15,03,49,14.10
2011,08,15,03,50,14.10
2011,08,15,03,51,14.10
2011,08,15,03,52,14.10
2011,08,15,03,53,14.10
2011,08,15,03,54,14.10
2011,08,15,03,55,14.20
2011,08,15,03,56,14.20
2011,08,15,03,57,14.30
2011,08,15,03,58,14.30
2011,08,15,03,59,14.30
2011,08,15,04,00,14.40
2011,08,15,04,01,14.40
2011,08,15,04,02,14.50
2011,08,15,04,03,14.50
2011,08,15,04,04,14.50
2011,08,15,04,05,14.50
2011,08,15,04,06,14.60
2011,08,15,04,07,14.60
2011,08,15,04,08,14.60
2011,08,15,04,09,14.70
2011,08,15,04,10,14.70
2011,08,15,04,11,14.70
2011,08,15,04,12,14.70
2011,08,15,04,13,14.70
2011,08,15,04,14,14.70
2011,08,15,04,15,14.70
2011,08,15,04,16,14.70
2011,08,15,04,17,14.70
2011,08,15,04,18,14.60
2011,08,15,04,19,14.60
2011,08,15,04,20,14.50
2011,08,15,04,21,14.50
2011,08,15,04,22,14.50
2011,08,15,04,23,14.40
2011,08,15,04,24,14.40
2011,08,15,04,25,14.40
2011,08,15,04,26,14.40
2011,08,15,04,27,14.40
2011,08,15,04,28,14.30
2011,08,15,04,29,14.30
2011,08,15,04,30,14.30
2011,08,15,04,31,14.30
2011,08,15,04,32,14.30
2011,08,15,04,33,14.20
2011,08,15,04,34,14.20
2011,08,15,04,35,14.20
2011,08,15,04,36,14.20
2011,08,15,04,37,14.20
2011,08,15,04,38,14.20
2011,08,15,04,39,14.10
2011,08,15,04,40,14.10
2011,08,15,04,41,14.10
2011,08,15,04,42,14.10
2011,08,15,04,43,14.00
2011,08,15,04,44,14.00
2011,08,15,04,45,14.00
2011,08,15,04,46,14.00
2011,08,15,04,47,13.90
2011,08,15,04,48,13.90
2011,08,15,04,49,13.90
2011,08,15,04,50,13.90
2011,08,15,04,51,13.80
2011,08,15,04,52,13.80
2011,08,15,04,53,13.80
2011,08,15,04,54,13.80
2011,08,15,04,55,13.80
2011,08,15,04,56,13.80
2011,08,15,04,57,13.80
2011,08,15,04,58,13.70
2011,08,15,04,59,13.70
2011,08,15,05,00,13.70
2011,08,15,05,01,13.60
2011,08,15,05,02,13.60
2011,08,15,05,03,13.60
2011,08,15,05,04,13.60
2011,08,15,05,05,13.50
2011,08,15,05,06,13.50
2011,08,15,05,07,13.40
2011,08,15,05,08,13.40
2011,08,15,05,09,13.40
2011,08,15,05,10,13.30
2011,08,15,05,11,13.30
2011,08,15,05,12,13.30
2011,08,15,05,13,13.20
2011,08,15,05,14,13.20
2011,08,15,05,15,13.10
2011,08,15,05,16,13.10
2011,08,15,05,17,13.10
2011,08,15,05,18,13.00
2011,08,15,05,19,13.00
2011,08,15,05,20,13.00
2011,08,15,05,21,12.90
2011,08,15,05,22,12.90
2011,08,15,05,23,12.90
2011,08,15,05,24,12.90
2011,08,15,05,25,12.80
2011,08,15,05,26,12.80
2011,08,15,05,27,12.80
2011,08,15,05,28,12.80
2011,08,15,05,29,12.80
2011,08,15,05,30,12.80
2011,08,15,05,31,12.80
2011,08,15,05,32,12.80
2011,08,15,05,33,12.80
2011,08,15,05,34,12.80
2011,08,15,05,35,12.90
2011,08,15,05,36,12.90
2011,08,15,05,37,12.90
2011,08,15,05,38,12.90
2011,08,15,05,39,12.90
2011,08,15,05,40,12.90
2011,08,15,05,41,12.90
2011,08,15,05,42,12.90
2011,08,15,05,43,12.90
2011,08,15,05,44,12.90
2011,08,15,05,45,12.90
2011,08,15,05,46,12.90
2011,08,15,05,47,12.90
2011,08,15,05,48,12.90
2011,08,15,05,49,12.90
2011,08,15,05,50,12.90
2011,08,15,05,51,12.90
2011,08,15,05,52,12.90
2011,08,15,05,53,12.90
2011,08,15,05,54,12.90
2011,08,15,05,55,12.90
2011,08,15,05,56,13.00
2011,08,15,05,57,13.00
2011,08,15,05,58,13.10
2011,08,15,05,59,13.10
2011,08,15,06,00,13.10
2011,08,15,06,01,13.10
2011,08,15,06,02,13.20
2011,08,15,06,03,13.20
2011,08,15,06,04,13.20
2011,08,15,06,05,13.20
2011,08,15,06,06,13.30
2011,08,15,06,07,13.30
2011,08,15,06,08,13.30
2011,08,15,06,09,13.30
2011,08,15,06,10,13.30
2011,08,15,06,11,13.30
2011,08,15,06,12,13.30
2011,08,15,06,13,13.30
2011,08,15,06,14,13.40
2011,08,15,06,15,13.40
2011,08,15,06,16,13.40
2011,08,15,06,17,13.40
2011,08,15,06,18,13.40
2011,08,15,06,19,13.40
2011,08,15,06,20,13.40
2011,08,15,06,21,13.40
2011,08,15,06,22,13.40
2011,08,15,06,23,13.40
2011,08,15,06,24,13.40
2011,08,15,06,25,13.40
2011,08,15,06,26,13.40
2011,08,15,06,27,13.40
2011,08,15,06,28,13.40
2011,08,15,06,29,13.40
2011,08,15,06,30,13.40
2011,08,15,06,31,13.40
2011,08,15,06,32,13.40
2011,08,15,06,33,13.40
2011,08,15,06,34,13.40
2011,08,15,06,35,13.40
2011,08,15,06,36,13.40
2011,08,15,06,37,13.40
2011,08,15,06,38,13.40
2011,08,15,06,39,13.40
2011,08,15,06,40,13.40
2011,08,15,06,41,13.50
2011,08,15,06,42,13.50
2011,08,15,06,43,13.50
2011,08,15,06,44,13.60
2011,08,15,06,45,13.60
2011,08,15,06,46,13.60
2011,08,15,06,47,13.70
2011,08,15,06,48,13.70
2011,08,15,06,49,13.70
2011,08,15,06,50,13.80
2011,08,15,06,51,13.80
2011,08,15,06,52,13.90
2011,08,15,06,53,13.90
2011,08,15,06,54,14.00
2011,08,15,06,55,14.00
2011,08,15,06,56,14.10
2011,08,15,06,57,14.20
2011,08,15,06,58,14.20
2011,08,15,06,59,14.30
2011,08,15,07,00,14.40
2011,08,15,07,01,14.50
2011,08,15,07,02,14.50
2011,08,15,07,03,14.60
2011,08,15,07,04,14.70
2011,08,15,07,05,14.80
2011,08,15,07,06,14.80
2011,08,15,07,07,15.00
2011,08,15,07,08,15.00
2011,08,15,07,09,15.00
2011,08,15,07,10,15.00
2011,08,15,07,11,15.10
2011,08,15,07,12,15.20
2011,08,15,07,13,15.30
2011,08,15,07,14,15.40
2011,08,15,07,15,15.50
2011,08,15,07,16,15.50
2011,08,15,07,17,15.60
2011,08,15,07,18,15.70
2011,08,15,07,19,15.70
2011,08,15,07,20,15.70
2011,08,15,07,21,15.70
2011,08,15,07,22,15.80
2011,08,15,07,23,15.80
2011,08,15,07,24,15.90
2011,08,15,07,25,15.90
2011,08,15,07,26,15.90
2011,08,15,07,27,16.00
2011,08,15,07,28,16.00
2011,08,15,07,29,16.10
2011,08,15,07,30,16.10
2011,08,15,07,31,16.20
2011,08,15,07,32,16.10
2011,08,15,07,33,16.10
2011,08,15,07,34,16.10
2011,08,15,07,35,16.10
2011,08,15,07,36,16.20
2011,08,15,07,37,16.20
2011,08,15,07,38,16.20
2011,08,15,07,39,16.20
2011,08,15,07,40,16.20
2011,08,15,07,41,16.20
2011,08,15,07,42,16.20
2011,08,15,07,43,16.20
2011,08,15,07,44,16.30
2011,08,15,07,45,16.30
2011,08,15,07,46,16.40
2011,08,15,07,47,16.40
2011,08,15,07,48,16.40
2011,08,15,07,49,16.50
2011,08,15,07,50,16.50
2011,08,15,07,51,16.60
2011,08,15,07,52,16.60
2011,08,15,07,53,16.60
2011,08,15,07,54,16.70
2011,08,15,07,55,16.80
2011,08,15,07,56,16.80
2011,08,15,07,57,16.90
2011,08,15,07,58,17.00
2011,08,15,07,59,17.00
2011,08,15,08,00,17.00
2011,08,15,08,01,17.10
2011,08,15,08,02,17.10
2011,08,15,08,03,17.10
2011,08,15,08,04,17.10
2011,08,15,08,05,17.10
2011,08,15,08,06,17.10
2011,08,15,08,07,17.20
2011,08,15,08,08,17.20
2011,08,15,08,09,17.30
2011,08,15,08,10,17.30
2011,08,15,08,11,17.30
2011,08,15,08,12,17.30
2011,08,15,08,13,17.30
2011,08,15,08,14,17.30
2011,08,15,08,15,17.20
2011,08,15,08,16,17.20
2011,08,15,08,17,17.10
2011,08,15,08,18,17.00
2011,08,15,08,19,17.00
2011,08,15,08,20,17.00
2011,08,15,08,21,17.10
2011,08,15,08,22,17.10
2011,08,15,08,23,17.20
2011,08,15,08,24,17.20
2011,08,15,08,25,17.30
2011,08,15,08,26,17.30
2011,08,15,08,27,17.30
2011,08,15,08,28,17.40
2011,08,15,08,29,17.40
2011,08,15,08,30,17.50
2011,08,15,08,31,17.50
2011,08,15,08,32,17.60
2011,08,15,08,33,17.60
2011,08,15,08,34,17.60
2011,08,15,08,35,17.60
2011,08,15,08,36,17.50
2011,08,15,08,37,17.50
2011,08,15,08,38,17.40
2011,08,15,08,39,17.40
2011,08,15,08,40,17.40
2011,08,15,08,41,17.40
2011,08,15,08,42,17.30
2011,08,15,08,43,17.30
2011,08,15,08,44,17.30
2011,08,15,08,45,17.30
2011,08,15,08,46,17.30
2011,08,15,08,47,17.30
2011,08,15,08,48,17.30
2011,08,15,08,49,17.30
2011,08,15,08,50,17.30
2011,08,15,08,51,17.40
2011,08,15,08,52,17.40
2011,08,15,08,53,17.40
2011,08,15,08,54,17.30
2011,08,15,08,55,17.30
2011,08,15,08,56,17.30
2011,08,15,08,57,17.40
2011,08,15,08,58,17.40
2011,08,15,08,59,17.50
2011,08,15,09,00,17.50
2011,08,15,09,01,17.60
2011,08,15,09,02,17.70
2011,08,15,09,03,17.80
2011,08,15,09,04,17.90
2011,08,15,09,05,18.00
2011,08,15,09,06,18.00
2011,08,15,09,07,18.10
2011,08,15,09,08,18.10
2011,08,15,09,09,18.20
2011,08,15,09,10,18.20
2011,08,15,09,11,18.20
2011,08,15,09,12,18.30
2011,08,15,09,13,18.30
2011,08,15,09,14,18.40
2011,08,15,09,15,18.30
2011,08,15,09,16,18.30
2011,08,15,09,17,18.30
2011,08,15,09,18,18.30
2011,08,15,09,19,18.30
2011,08,15,09,20,18.40
2011,08,15,09,21,18.50
2011,08,15,09,22,18.50
2011,08,15,09,23,18.50
2011,08,15,09,24,18.50
2011,08,15,09,25,18.50
2011,08,15,09,26,18.60
2011,08,15,09,27,18.60
2011,08,15,09,28,18.70
2011,08,15,09,29,18.80
2011,08,15,09,30,18.80
2011,08,15,09,31,18.80
2011,08,15,09,32,18.80
2011,08,15,09,33,18.70
2011,08,15,09,34,18.60
2011,08,15,09,35,18.40
2011,08,15,09,36,18.30
2011,08,15,09,37,18.20
2011,08,15,09,38,18.20
2011,08,15,09,39,18.20
2011,08,15,09,40,18.20
2011,08,15,09,41,18.20
2011,08,15,09,42,18.30
2011,08,15,09,43,18.40
2011,08,15,09,44,18.40
2011,08,15,09,45,18.50
2011,08,15,09,46,18.50
2011,08,15,09,47,18.50
2011,08,15,09,48,18.40
2011,08,15,09,49,18.40
2011,08,15,09,50,18.40
2011,08,15,09,51,18.50
2011,08,15,09,52,18.60
2011,08,15,09,53,18.70
2011,08,15,09,54,18.70
2011,08,15,09,55,18.80
2011,08,15,09,56,18.80
2011,08,15,09,57,18.80
2011,08,15,09,58,18.80
2011,08,15,09,59,18.70
2011,08,15,10,00,18.60
2011,08,15,10,01,18.50
2011,08,15,10,02,18.40
2011,08,15,10,03,18.40
2011,08,15,10,04,18.40
2011,08,15,10,05,18.40
2011,08,15,10,06,18.40
2011,08,15,10,07,18.50
2011,08,15,10,08,18.60
2011,08,15,10,09,18.70
2011,08,15,10,10,18.80
2011,08,15,10,11,18.90
2011,08,15,10,12,18.90
2011,08,15,10,13,18.90
2011,08,15,10,14,18.90
2011,08,15,10,15,18.80
2011,08,15,10,16,18.80
2011,08,15,10,17,18.70
2011,08,15,10,18,18.80
2011,08,15,10,19,18.80
2011,08,15,10,20,18.80
2011,08,15,10,21,18.80
2011,08,15,10,22,18.60
2011,08,15,10,23,18.50
2011,08,15,10,24,18.40
2011,08,15,10,25,18.40
2011,08,15,10,26,18.40
2011,08,15,10,27,18.30
2011,08,15,10,28,18.30
2011,08,15,10,29,18.20
2011,08,15,10,30,18.20
2011,08,15,10,31,18.20
2011,08,15,10,32,18.20
2011,08,15,10,33,18.30
2011,08,15,10,34,18.30
2011,08,15,10,35,18.40
2011,08,15,10,36,18.40
2011,08,15,10,37,18.30
2011,08,15,10,38,18.40
2011,08,15,10,39,18.40
2011,08,15,10,40,18.50
2011,08,15,10,41,18.50
2011,08,15,10,42,18.70
2011,08,15,10,43,18.80
2011,08,15,10,44,19.00
2011,08,15,10,45,19.00
2011,08,15,10,46,19.00
2011,08,15,10,47,18.90
2011,08,15,10,48,18.90
2011,08,15,10,49,18.80
2011,08,15,10,50,18.90
2011,08,15,10,51,18.90
2011,08,15,10,52,19.00
2011,08,15,10,53,19.00
2011,08,15,10,54,19.10
2011,08,15,10,55,19.20
2011,08,15,10,56,19.30
2011,08,15,10,57,19.30
2011,08,15,10,58,19.40
2011,08,15,10,59,19.40
2011,08,15,11,00,19.40
2011,08,15,11,01,19.40
2011,08,15,11,02,19.50
2011,08,15,11,03,19.60
2011,08,15,11,04,19.60
2011,08,15,11,05,19.50
2011,08,15,11,06,19.60
2011,08,15,11,07,19.50
2011,08,15,11,08,19.30
2011,08,15,11,09,19.20
2011,08,15,11,10,19.00
2011,08,15,11,11,18.90
2011,08,15,11,12,18.60
2011,08,15,11,13,18.50
2011,08,15,11,14,18.30
2011,08,15,11,15,18.30
2011,08,15,11,16,18.40
2011,08,15,11,17,18.50
2011,08,15,11,18,18.60
2011,08,15,11,19,18.80
2011,08,15,11,20,18.90
2011,08,15,11,21,18.90
2011,08,15,11,22,18.90
2011,08,15,11,23,18.80
2011,08,15,11,24,18.60
2011,08,15,11,25,18.60
2011,08,15,11,26,18.50
2011,08,15,11,27,18.40
2011,08,15,11,28,18.30
2011,08,15,11,29,18.30
2011,08,15,11,30,18.20
2011,08,15,11,31,18.30
2011,08,15,11,32,18.40
2011,08,15,11,33,18.40
2011,08,15,11,34,18.40
2011,08,15,11,35,18.40
2011,08,15,11,36,18.40
2011,08,15,11,37,18.40
2011,08,15,11,38,18.40
2011,08,15,11,39,18.40
2011,08,15,11,40,18.40
2011,08,15,11,41,18.40
2011,08,15,11,42,18.40
2011,08,15,11,43,18.30
2011,08,15,11,44,18.30
2011,08,15,11,45,18.30
2011,08,15,11,46,18.30
2011,08,15,11,47,18.40
2011,08,15,11,48,18.40
2011,08,15,11,49,18.40
2011,08,15,11,50,18.40
2011,08,15,11,51,18.40
2011,08,15,11,52,18.40
2011,08,15,11,53,18.40
2011,08,15,11,54,18.40
2011,08,15,11,55,18.30
2011,08,15,11,56,18.30
2011,08,15,11,57,18.20
2011,08,15,11,58,18.20
2011,08,15,11,59,18.10
2011,08,15,12,00,18.20
2011,08,15,12,01,18.20
2011,08,15,12,02,18.20
2011,08,15,12,03,18.20
2011,08,15,12,04,18.10
2011,08,15,12,05,18.10
2011,08,15,12,06,18.00
2011,08,15,12,07,17.90
2011,08,15,12,08,17.80
2011,08,15,12,09,17.80
2011,08,15,12,10,17.80
2011,08,15,12,11,17.80
2011,08,15,12,12,17.80
2011,08,15,12,13,17.80
2011,08,15,12,14,17.80
2011,08,15,12,15,17.80
2011,08,15,12,16,17.70
2011,08,15,12,17,17.70
2011,08,15,12,18,17.70
2011,08,15,12,19,17.70
2011,08,15,12,20,17.80
2011,08,15,12,21,17.90
2011,08,15,12,22,18.10
2011,08,15,12,23,18.30
2011,08,15,12,24,18.40
2011,08,15,12,25,18.50
2011,08,15,12,26,18.60
2011,08,15,12,27,18.70
2011,08,15,12,28,18.80
2011,08,15,12,29,18.90
2011,08,15,12,30,19.00
2011,08,15,12,31,19.10
2011,08,15,12,32,19.10
2011,08,15,12,33,19.10
2011,08,15,12,34,19.10
2011,08,15,12,35,19.10
2011,08,15,12,36,19.10
2011,08,15,12,37,19.20
2011,08,15,12,38,19.30
2011,08,15,12,39,19.40
2011,08,15,12,40,19.40
2011,08,15,12,41,19.40
2011,08,15,12,42,19.40
2011,08,15,12,43,19.40
2011,08,15,12,44,19.40
2011,08,15,12,45,19.30
2011,08,15,12,46,19.20
2011,08,15,12,47,19.20
2011,08,15,12,48,19.20
2011,08,15,12,49,19.20
2011,08,15,12,50,19.20
2011,08,15,12,51,19.20
2011,08,15,12,52,19.20
2011,08,15,12,53,19.20
2011,08,15,12,54,19.10
2011,08,15,12,55,19.10
2011,08,15,12,56,19.10
2011,08,15,12,57,19.20
2011,08,15,12,58,19.10
2011,08,15,12,59,19.10
2011,08,15,13,00,19.10
2011,08,15,13,01,19.10
2011,08,15,13,02,19.10
2011,08,15,13,03,19.00
2011,08,15,13,04,18.90
2011,08,15,13,05,18.90
2011,08,15,13,06,18.90
2011,08,15,13,07,19.00
2011,08,15,13,08,19.00
2011,08,15,13,09,18.90
2011,08,15,13,10,19.00
2011,08,15,13,11,19.00
2011,08,15,13,12,19.00
2011,08,15,13,13,19.00
2011,08,15,13,14,19.00
2011,08,15,13,15,19.00
2011,08,15,13,16,19.00
2011,08,15,13,17,19.10
2011,08,15,13,18,19.20
2011,08,15,13,19,19.30
2011,08,15,13,20,19.40
2011,08,15,13,21,19.50
2011,08,15,13,22,19.60
2011,08,15,13,23,19.70
2011,08,15,13,24,19.60
2011,08,15,13,25,19.60
2011,08,15,13,26,19.50
2011,08,15,13,27,19.40
2011,08,15,13,28,19.40
2011,08,15,13,29,19.30
2011,08,15,13,30,19.30
2011,08,15,13,31,19.30
2011,08,15,13,32,19.30
2011,08,15,13,33,19.30
2011,08,15,13,34,19.30
2011,08,15,13,35,19.30
2011,08,15,13,36,19.20
2011,08,15,13,37,19.30
2011,08,15,13,38,19.20
2011,08,15,13,39,19.30
2011,08,15,13,40,19.30
2011,08,15,13,41,19.40
2011,08,15,13,42,19.40
2011,08,15,13,43,19.40
2011,08,15,13,44,19.40
2011,08,15,13,45,19.40
2011,08,15,13,46,19.40
2011,08,15,13,47,19.50
2011,08,15,13,48,19.70
2011,08,15,13,49,19.80
2011,08,15,13,50,19.90
2011,08,15,13,51,20.00
2011,08,15,13,52,20.00
2011,08,15,13,53,20.00
2011,08,15,13,54,20.10
2011,08,15,13,55,20.10
2011,08,15,13,56,20.10
2011,08,15,13,57,20.00
2011,08,15,13,58,20.00
2011,08,15,13,59,19.90
2011,08,15,14,00,19.80
2011,08,15,14,01,19.80
2011,08,15,14,02,19.70
2011,08,15,14,03,19.80
2011,08,15,14,04,19.80
2011,08,15,14,05,19.90
2011,08,15,14,06,19.90
2011,08,15,14,07,20.00
2011,08,15,14,08,20.10
2011,08,15,14,09,20.10
2011,08,15,14,10,20.10
2011,08,15,14,11,20.00
2011,08,15,14,12,20.10
2011,08,15,14,13,20.20
2011,08,15,14,14,20.20
2011,08,15,14,15,20.10
2011,08,15,14,16,20.00
2011,08,15,14,17,19.80
2011,08,15,14,18,19.60
2011,08,15,14,19,19.60
2011,08,15,14,20,19.50
2011,08,15,14,21,19.50
2011,08,15,14,22,19.50
2011,08,15,14,23,19.40
2011,08,15,14,24,19.30
2011,08,15,14,25,19.30
2011,08,15,14,26,19.40
2011,08,15,14,27,19.60
2011,08,15,14,28,19.70
2011,08,15,14,29,19.90
2011,08,15,14,30,20.00
2011,08,15,14,31,19.90
2011,08,15,14,32,19.90
2011,08,15,14,33,19.90
2011,08,15,14,34,19.90
2011,08,15,14,35,19.80
2011,08,15,14,36,19.70
2011,08,15,14,37,19.70
2011,08,15,14,38,19.70
2011,08,15,14,39,19.70
2011,08,15,14,40,19.70
2011,08,15,14,41,19.70
2011,08,15,14,42,19.50
2011,08,15,14,43,19.30
2011,08,15,14,44,19.10
2011,08,15,14,45,19.10
2011,08,15,14,46,19.10
2011,08,15,14,47,19.10
2011,08,15,14,48,19.10
2011,08,15,14,49,19.10
2011,08,15,14,50,19.20
2011,08,15,14,51,19.20
2011,08,15,14,52,19.20
2011,08,15,14,53,19.10
2011,08,15,14,54,19.10
2011,08,15,14,55,19.10
2011,08,15,14,56,19.10
2011,08,15,14,57,19.10
2011,08,15,14,58,19.10
2011,08,15,14,59,19.10
2011,08,15,15,00,19.10
2011,08,15,15,01,19.10
2011,08,15,15,02,19.10
2011,08,15,15,03,19.00
2011,08,15,15,04,18.90
2011,08,15,15,05,18.80
2011,08,15,15,06,18.60
2011,08,15,15,07,18.50
2011,08,15,15,08,18.40
2011,08,15,15,09,18.40
2011,08,15,15,10,18.30
2011,08,15,15,11,18.30
2011,08,15,15,12,18.30
2011,08,15,15,13,18.30
2011,08,15,15,14,18.40
2011,08,15,15,15,18.40
2011,08,15,15,16,18.50
2011,08,15,15,17,18.60
2011,08,15,15,18,18.60
2011,08,15,15,19,18.60
2011,08,15,15,20,18.60
2011,08,15,15,21,18.60
2011,08,15,15,22,18.60
2011,08,15,15,23,18.60
2011,08,15,15,24,18.60
2011,08,15,15,25,18.50
2011,08,15,15,26,18.40
2011,08,15,15,27,18.30
2011,08,15,15,28,18.30
2011,08,15,15,29,18.30
2011,08,15,15,30,18.40
2011,08,15,15,31,18.50
2011,08,15,15,32,18.60
2011,08,15,15,33,18.60
2011,08,15,15,34,18.70
2011,08,15,15,35,18.80
2011,08,15,15,36,18.80
2011,08,15,15,37,18.80
2011,08,15,15,38,18.80
2011,08,15,15,39,18.80
2011,08,15,15,40,18.90
2011,08,15,15,41,18.90
2011,08,15,15,42,19.00
2011,08,15,15,43,19.10
2011,08,15,15,44,19.20
2011,08,15,15,45,19.30
2011,08,15,15,46,19.50
2011,08,15,15,47,19.60
2011,08,15,15,48,19.80
2011,08,15,15,49,19.90
2011,08,15,15,50,20.10
2011,08,15,15,51,20.20
2011,08,15,15,52,20.30
2011,08,15,15,53,20.40
2011,08,15,15,54,20.50
2011,08,15,15,55,20.60
2011,08,15,15,56,20.70
2011,08,15,15,57,20.80
2011,08,15,15,58,21.00
2011,08,15,15,59,21.20
2011,08,15,16,00,21.30
2011,08,15,16,01,21.30
2011,08,15,16,02,21.40
2011,08,15,16,03,21.30
2011,08,15,16,04,21.30
2011,08,15,16,05,21.20
2011,08,15,16,06,21.10
2011,08,15,16,07,21.10
2011,08,15,16,08,21.10
2011,08,15,16,09,21.10
2011,08,15,16,10,21.10
2011,08,15,16,11,21.00
2011,08,15,16,12,21.10
2011,08,15,16,13,21.10
2011,08,15,16,14,21.00
2011,08,15,16,15,21.00
2011,08,15,16,16,20.90
2011,08,15,16,17,20.80
2011,08,15,16,18,20.80
2011,08,15,16,19,20.80
2011,08,15,16,20,20.80
2011,08,15,16,21,20.80
2011,08,15,16,22,20.70
2011,08,15,16,23,20.70
2011,08,15,16,24,20.70
2011,08,15,16,25,20.70
2011,08,15,16,26,20.60
2011,08,15,16,27,20.50
2011,08,15,16,28,20.40
2011,08,15,16,29,20.40
2011,08,15,16,30,20.40
2011,08,15,16,31,20.40
2011,08,15,16,32,20.40
2011,08,15,16,33,20.50
2011,08,15,16,34,20.50
2011,08,15,16,35,20.60
2011,08,15,16,36,20.70
2011,08,15,16,37,20.80
2011,08,15,16,38,20.80
2011,08,15,16,39,20.60
2011,08,15,16,40,20.60
2011,08,15,16,41,20.60
2011,08,15,16,42,20.50
2011,08,15,16,43,20.40
2011,08,15,16,44,20.40
2011,08,15,16,45,20.40
2011,08,15,16,46,20.40
2011,08,15,16,47,20.40
2011,08,15,16,48,20.30
2011,08,15,16,49,20.30
2011,08,15,16,50,20.20
2011,08,15,16,51,20.20
2011,08,15,16,52,20.20
2011,08,15,16,53,20.20
2011,08,15,16,54,20.20
2011,08,15,16,55,20.20
2011,08,15,16,56,20.20
2011,08,15,16,57,20.30
2011,08,15,16,58,20.30
2011,08,15,16,59,20.30
2011,08,15,17,00,20.40
2011,08,15,17,01,20.40
2011,08,15,17,02,20.40
2011,08,15,17,03,20.40
2011,08,15,17,04,20.40
2011,08,15,17,05,20.40
2011,08,15,17,06,20.40
2011,08,15,17,07,20.40
2011,08,15,17,08,20.30
2011,08,15,17,09,20.30
2011,08,15,17,10,20.20
2011,08,15,17,11,20.20
2011,08,15,17,12,20.20
2011,08,15,17,13,20.20
2011,08,15,17,14,20.20
2011,08,15,17,15,20.30
2011,08,15,17,16,20.30
2011,08,15,17,17,20.40
2011,08,15,17,18,20.40
2011,08,15,17,19,20.50
2011,08,15,17,20,20.40
2011,08,15,17,21,20.40
2011,08,15,17,22,20.30